Home > Weather > Wertheim > Past weeks

Flag for Germany Weather for the Past 2 Weeks in Wertheim, Baden-Württemberg, Germany

Now
41 °F

Thunderstorms. Mostly cloudy.


Feels Like: 30 °F
Forecast: 36 / 40 °F
Wind: 26 mph from Southwest

Location: Niederstetten

Current Time: Feb 9, 2016 at 8:04:04 PM

Latest Report: Feb 9, 2016 at 7:20 PM


Visibility: N/A

Pressure: 29.18 "Hg

Humidity: 87%

Dew point: 37 °F

Location of WertheimLocation

Historic Weather in Wertheim — Graph

°F

Wertheim Temperature Yesterday

Maximum temperature yesterday: 50 °F (at 12:20 PM)
Minimum temperature yesterday: 37 °F (at 4:20 AM)
Average temperature yesterday: 42 °F

High & Low Weather Summary for the Past Weeks

 TemperatureHumidityPressure
High54 °F (Jan 26, 12:20 PM)100% (Jan 28, 10:20 PM)30.39 "Hg (Jan 28, 10:20 PM)
Low30 °F (Feb 3, 7:20 PM)54% (Jan 27, 2:20 PM)29.12 "Hg (Feb 9, 5:20 PM)
Average42 °F82%30.03 "Hg
* Reported Jan 25 7:20 PM — Feb 9 7:03 PM, Wertheim, Weather by CustomWeather, © 2016

Note: Actual official high and low records may vary slightly from our data, if they occured in-between our weather recording intervals... More about our weather records

Advertising

Wertheim Weather History for the Previous 24 Hours

 ConditionsComfort  
Time TempWeatherWind HumidityBarometerVisibility
7:03 PM
Tue, Feb 9
39 °FThunderstorms. Mostly cloudy.28 mph93%29.18 "Hg5 mi
6:45 PM39 °FStrong thunderstorms. Passing clouds.33 mph87%29.18 "Hg1 mi
6:20 PM48 °FThunderstorms. Passing clouds.26 mph76%29.12 "HgN/A
5:20 PM46 °FLight rain. More clouds than sun.24 mph82%29.12 "HgN/A
5:00 PM46 °FLight rain. Partly sunny.25 mph82%29.15 "HgN/A
4:20 PM46 °FPartly sunny.23 mph87%29.18 "HgN/A
3:20 PM46 °FRain. Partly sunny.25 mph87%29.24 "HgN/A
2:47 PM48 °FRain. Partly sunny.24 mph82%29.24 "HgN/A
1:20 PM48 °FLight rain. Partly sunny.22 mph76%29.30 "HgN/A
12:20 PM45 °FLight rain. Mostly cloudy.23 mph81%29.36 "HgN/A
11:20 AM43 °FLight rain. Fog.14 mph87%29.45 "Hg2 mi
11:02 AM43 °FRain. Fog.14 mph87%29.47 "Hg2 mi
10:20 AM43 °FLight rain. Broken clouds.13 mph81%29.50 "HgN/A
9:20 AM41 °FPartly sunny.13 mph87%29.53 "HgN/A
8:20 AM41 °FPartly sunny.10 mph81%29.59 "HgN/A
7:20 AM39 °FPassing clouds.14 mph87%29.62 "HgN/A
6:20 AM39 °FPassing clouds.15 mph87%29.62 "HgN/A
5:20 AM41 °FSprinkles. Passing clouds.16 mph81%29.65 "HgN/A
4:20 AM41 °FMostly cloudy.12 mph81%29.65 "HgN/A
3:20 AM41 °FMostly cloudy.15 mph81%29.68 "HgN/A
2:20 AM39 °FRain showers. Overcast.29 mph87%29.68 "HgN/A
2:00 AM43 °FRain showers. Overcast.22 mph76%29.68 "Hg3 mi
1:20 AM43 °FPassing clouds.26 mph71%29.68 "HgN/A
12:20 AM43 °FPassing clouds.25 mph71%29.65 "HgN/A
11:20 PM
Mon, Feb 8
41 °FPassing clouds.23 mph81%29.65 "HgN/A
10:20 PM41 °FPassing clouds.24 mph76%29.65 "HgN/A
9:20 PM39 °FLow clouds.29 mph81%29.65 "HgN/A
8:56 PM39 °FThunderstorms. Overcast.23 mph81%29.65 "Hg3 mi
8:20 PM41 °FPassing clouds.24 mph81%29.59 "HgN/A
Weather by CustomWeather, © 2016

See weather overviewHow to use our weather pages